Location: B�rgermoos
(47.6500°N, 9.0667°E)
Time: 00:19:42
(UTC+00:00)

Tiros 1 - Pass Details

Date: 11 August 2021
Orbit: 630 x 663 km, 48.4° (Epoch: 19 September)

Event Time Altitude Azimuth Distance (km) Brightness Sun altitude
Rises 15:33:58 0° 261° (W) 2,992 11.8 30.3°
Reaches altitude 10° 15:36:19 10° 262° (W) 2,079 11.4 29.9°
Maximum altitude 15:41:09 86° 352° (N) 667 7.7 29.1°
Drops below altitude 10° 15:45:57 10° 81° (E) 2,070 9.3 28.3°
Sets 15:48:17 0° 82° (E) 2,977 10.0 27.9°
